DW6927 Weather Reports


Display with metric or nautical units.
time (UTC)temp
F
wind
direction
speed
MPH
gust
MPH
rain 1hr
in
rain 24hr
in
rain mn
in
humidity
%
barometer
mb
20260901034053 71 0 0.0 0.0 0.00 0.00 0.00 93 1021.1
20260901033553 71 0 0.0 0.0 0.00 0.00 0.00 93 1021.1
20260901033105 71 0 0.0 0.0 0.00 0.00 0.00 93 1021.3
20260901032554 71 0 0.0 0.0 0.00 0.00 0.00 93 1021.2
20260901032055 71 0 0.0 0.0 0.00 0.00 0.00 93 1021.4
20260901031556 71 0 0.0 0.0 0.00 0.00 0.00 92 1021.2
20260901031054 72 0 0.0 0.0 0.00 0.00 0.00 92 1021.3
20260901030554 72 0 0.0 0.0 0.00 0.00 0.00 92 1021.3
20260901030100 72 0 0.0 0.0 0.00 0.00 0.00 92 1021.2
20260901025554 72 0 0.0 0.0 0.00 0.00 0.00 92 1021.2
20260901025054 72 0 0.0 0.0 0.00 0.00 0.00 92 1021.2
20260901024607 72 0 0.0 0.0 0.00 0.00 0.00 91 1021.3
20260901024058 72 0 0.0 0.0 0.00 0.00 0.00 91 1021.3
20260901023553 72 0 0.0 0.0 0.00 0.00 0.00 91 1021.1
20260901023059 73 0 0.0 0.0 0.00 0.00 0.00 91 1021.3
20260901022553 73 0 0.0 0.0 0.00 0.00 0.00 91 1021.1
20260901022054 73 0 0.0 0.0 0.00 0.00 0.00 90 1021.1
20260901021559 73 0 0.0 0.0 0.00 0.00 0.00 90 1021.1
20260901021055 73 0 0.0 0.0 0.00 0.00 0.00 90 1021.1
20260901020554 73 0 0.0 0.0 0.00 0.00 0.00 90 1021.3
20260901020106 73 0 0.0 0.0 0.00 0.00 0.00 90 1021.3
20260901015555 74 0 0.0 0.0 0.00 0.00 0.00 89 1021.0
20260901015054 74 0 0.0 0.0 0.00 0.00 0.00 89 1020.8
20260901014604 74 0 0.0 0.0 0.00 0.00 0.00 88 1020.9
20260901014054 74 0 0.0 0.0 0.00 0.00 0.00 88 1020.9
20260901013554 74 0 0.0 0.0 0.00 0.00 0.00 88 1020.8
20260901013058 74 0 0.0 0.0 0.00 0.00 0.00 87 1020.7
20260901012554 75 0 0.0 0.0 0.00 0.00 0.00 87 1020.6
20260901012054 75 0 0.0 0.0 0.00 0.00 0.00 87 1020.6
20260901011605 75 0 0.0 0.0 0.00 0.00 0.00 87 1020.5
20260901011054 75 0 0.0 0.0 0.00 0.00 0.00 86 1020.4
20260901010556 75 0 0.0 0.0 0.00 0.00 0.00 85 1020.4
20260901010107 76 0 0.0 0.0 0.00 0.00 0.00 85 1020.5
20260901005554 76 0 0.0 0.0 0.00 0.00 0.00 85 1020.4
20260901005053 76 0 0.0 0.0 0.00 0.00 0.00 85 1020.4
20260901004603 76 0 0.0 0.0 0.00 0.00 0.00 84 1020.3
20260901004053 76 0 0.0 0.0 0.00 0.00 0.00 84 1020.3
20260901003557 77 0 0.0 0.0 0.00 0.00 0.00 83 1020.3
20260901003102 77 0 0.0 0.0 0.00 0.00 0.00 83 1020.3
20260901002551 77 0 0.0 0.0 0.00 0.00 0.00 82 1020.2
20260901002054 78 0 0.0 0.0 0.00 0.00 0.00 83 1020.3
20260901001559 78 0 0.0 0.0 0.00 0.00 0.00 82 1020.2
20260901001056 78 0 0.0 0.0 0.00 0.00 0.00 82 1020.3
20260901000554 78 0 0.0 0.0 0.00 0.00 0.00 82 1020.2
20260901000055 79 0 0.0 0.0 0.00 0.00 0.00 82 1020.2
20260831235555 79 0 0.0 0.0 0.00 0.00 0.00 82 1020.2
20260831235054 79 0 0.0 0.0 0.00 0.00 0.00 82 1020.2
20260831234603 79 0 0.0 0.0 0.00 0.00 0.00 81 1020.2
20260831234054 79 0 0.0 0.0 0.00 0.00 0.00 80 1020.1
20260831233554 79 0 0.0 0.0 0.00 0.00 0.00 80 1020.2
20260831233101 80 0 0.0 0.0 0.00 0.00 0.00 78 1020.1
20260831232553 80 0 0.0 0.0 0.00 0.00 0.00 77 1020.1
20260831232053 80 0 0.0 0.0 0.00 0.00 0.00 77 1020.1
20260831231556 80 0 0.0 0.0 0.00 0.00 0.00 77 1020.2
20260831231058 81 0 0.0 0.0 0.00 0.00 0.00 77 1020.1
20260831230553 81 0 0.0 0.0 0.00 0.00 0.00 77 1020.1
20260831230108 81 0 0.0 0.0 0.00 0.00 0.00 76 1020.1
20260831225554 81 0 0.0 0.0 0.00 0.00 0.00 76 1020.3
20260831225053 81 0 0.0 0.0 0.00 0.00 0.00 75 1020.3
20260831224602 81 0 0.0 0.0 0.00 0.00 0.00 75 1020.3
20260831224054 81 0 0.0 0.0 0.00 0.00 0.00 75 1020.4
20260831223555 81 0 0.0 1.0 0.00 0.00 0.00 74 1020.4
20260831223059 82 0 0.0 2.0 0.00 0.00 0.00 73 1020.5
20260831222554 82 238 0.0 2.0 0.00 0.00 0.00 73 1020.6
20260831222054 82 238 0.0 2.0 0.00 0.00 0.00 73 1020.5
20260831221602 82 0 0.0 2.0 0.00 0.00 0.00 73 1020.6
20260831221054 82 0 0.0 2.0 0.00 0.00 0.00 72 1020.5
20260831220554 83 0 0.0 2.0 0.00 0.00 0.00 72 1020.6
20260831220131 83 0 0.0 2.0 0.00 0.00 0.00 71 1020.5
20260831215558 83 145 0.0 1.0 0.00 0.00 0.00 71 1020.7
20260831215054 83 0 0.0 3.0 0.00 0.00 0.00 71 1020.7
20260831214558 83 0 0.0 3.0 0.00 0.00 0.00 72 1020.8
20260831214053 83 0 0.0 0.0 0.00 0.00 0.00 68 1020.7
20260831213553 84 0 0.0 0.0 0.00 0.00 0.00 71 1020.8
20260831213105 84 0 0.0 0.0 0.00 0.00 0.00 70 1020.6
20260831212554 85 0 0.0 0.0 0.00 0.00 0.00 69 1020.8
20260831212054 85 0 0.0 0.0 0.00 0.00 0.00 70 1020.6
20260831211605 85 0 0.0 0.0 0.00 0.00 0.00 70 1020.6
20260831211054 86 0 0.0 0.0 0.00 0.00 0.00 67 1020.4
20260831210553 86 0 0.0 0.0 0.00 0.00 0.00 64 1020.5
20260831210100 86 0 0.0 0.0 0.00 0.00 0.00 66 1020.6
20260831205555 86 0 0.0 0.0 0.00 0.00 0.00 65 1020.5
20260831205055 86 0 0.0 0.0 0.00 0.00 0.00 66 1020.7
20260831204601 87 0 0.0 0.0 0.00 0.00 0.00 65 1020.8
20260831204054 87 0 0.0 0.0 0.00 0.00 0.00 67 1020.8
20260831203553 87 0 0.0 0.0 0.00 0.00 0.00 67 1020.9
20260831203123 87 0 0.0 2.0 0.00 0.00 0.00 65 1020.8
20260831202554 87 0 0.0 2.0 0.00 0.00 0.00 67 1020.9
20260831202054 88 0 0.0 0.0 0.00 0.00 0.00 65 1020.9
20260831201558 87 0 0.0 1.0 0.00 0.00 0.00 69 1020.9
20260831201054 87 0 0.0 1.0 0.00 0.00 0.00 70 1021.0
20260831200557 86 0 0.0 1.0 0.00 0.00 0.00 70 1021.0
20260831200058 86 0 0.0 3.0 0.00 0.00 0.00 70 1021.2
20260831195557 86 0 0.0 3.0 0.00 0.00 0.00 69 1021.2
20260831195054 86 0 1.0 3.0 0.00 0.00 0.00 68 1021.3
20260831194607 87 148 0.0 4.0 0.00 0.00 0.00 69 1021.4
20260831194054 87 148 0.0 4.0 0.00 0.00 0.00 69 1021.4
20260831193554 88 0 0.0 3.0 0.00 0.00 0.00 66 1021.5
20260831193058 88 0 0.0 1.0 0.00 0.00 0.00 67 1021.6
20260831192553 87 0 0.0 2.0 0.00 0.00 0.00 66 1021.5
20260831192054 87 0 0.0 2.0 0.00 0.00 0.00 68 1021.8
20260831191605 88 252 1.0 3.0 0.00 0.00 0.00 66 1021.6
20260831191054 88 265 0.0 3.0 0.00 0.00 0.00 68 1021.7
20260831190554 88 0 0.0 2.0 0.00 0.00 0.00 68 1021.8
20260831190132 88 0 0.0 2.0 0.00 0.00 0.00 70 1021.9
20260831185554 87 142 0.0 2.0 0.00 0.00 0.00 71 1021.8
20260831185101 87 291 0.0 2.0 0.00 0.00 0.00 67 1021.8
20260831184608 87 0 0.0 4.0 0.00 0.00 0.00 68 1021.9
20260831184053 87 0 1.0 4.0 0.00 0.00 0.00 68 1022.0
20260831183556 87 0 0.0 3.0 0.00 0.00 0.00 71 1022.0
20260831183108 87 0 0.0 3.0 0.00 0.00 0.00 69 1022.0
20260831182557 87 0 1.0 3.0 0.00 0.00 0.00 66 1022.1
20260831182056 87 0 0.0 1.0 0.00 0.00 0.00 69 1022.1
20260831181604 87 0 0.0 2.0 0.00 0.00 0.00 70 1022.1
20260831181053 87 0 0.0 3.0 0.00 0.00 0.00 69 1022.2
20260831180553 87 0 0.0 3.0 0.00 0.00 0.00 72 1022.4
20260831180104 87 270 0.0 2.0 0.00 0.00 0.00 70 1022.3
20260831175558 87 0 0.0 2.0 0.00 0.00 0.00 70 1022.4
20260831175054 86 0 0.0 4.0 0.00 0.00 0.00 70 1022.4
20260831174602 86 44 1.0 4.0 0.00 0.00 0.00 68 1022.3
20260831174054 86 102 0.0 3.0 0.00 0.00 0.00 71 1022.3
20260831173557 86 0 0.0 3.0 0.00 0.00 0.00 70 1022.4
20260831173057 86 0 0.0 3.0 0.00 0.00 0.00 68 1022.5
20260831172556 85 252 1.0 3.0 0.00 0.00 0.00 69 1022.5
20260831172053 85 303 1.0 2.0 0.00 0.00 0.00 69 1022.5
20260831171608 85 271 0.0 2.0 0.00 0.00 0.00 73 1022.6
20260831171054 84 137 0.0 2.0 0.00 0.00 0.00 75 1022.6
20260831170554 84 0 0.0 2.0 0.00 0.00 0.00 75 1022.7
20260831170105 84 196 1.0 2.0 0.00 0.00 0.00 75 1022.7
20260831165554 84 230 0.0 2.0 0.00 0.00 0.00 76 1022.7
20260831165053 84 0 0.0 2.0 0.00 0.00 0.00 76 1022.7
20260831164603 84 0 0.0 3.0 0.00 0.00 0.00 76 1022.7
20260831164053 83 232 1.0 3.0 0.00 0.00 0.00 74 1022.7
20260831163553 84 241 0.0 3.0 0.00 0.00 0.00 73 1022.8
20260831163057 84 0 0.0 3.0 0.00 0.00 0.00 73 1022.8
20260831162554 84 0 0.0 3.0 0.00 0.00 0.00 76 1022.9
20260831162053 83 0 1.0 3.0 0.00 0.00 0.00 75 1022.9
20260831161608 83 0 0.0 1.0 0.00 0.00 0.00 78 1023.1
20260831161053 83 0 0.0 1.0 0.00 0.00 0.00 75 1022.9
20260831160553 84 0 0.0 2.0 0.00 0.00 0.00 76 1023.1
20260831160131 85 0 0.0 3.0 0.00 0.00 0.00 75 1023.2
20260831155554 85 0 0.0 3.0 0.00 0.00 0.00 75 1023.1
20260831155054 85 106 0.0 2.0 0.00 0.00 0.00 78 1023.1
20260831154627 85 0 0.0 2.0 0.00 0.00 0.00 74 1023.1
20260831154056 85 0 0.0 0.0 0.00 0.00 0.00 78 1023.2
20260831153554 84 0 0.0 0.0 0.00 0.00 0.00 75 1023.3
20260831153133 84 0 0.0 0.0 0.00 0.00 0.00 76 1023.2
20260831152553 83 0 0.0 0.0 0.00 0.00 0.00 78 1023.3
20260831152053 83 0 0.0 0.0 0.00 0.00 0.00 79 1023.2
20260831151607 83 0 0.0 0.0 0.00 0.00 0.00 79 1023.3
20260831151052 82 0 0.0 0.0 0.00 0.00 0.00 81 1023.2
20260831150552 82 0 0.0 0.0 0.00 0.00 0.00 81 1023.4
20260831150104 82 0 0.0 0.0 0.00 0.00 0.00 82 1023.3
20260831145553 82 0 0.0 0.0 0.00 0.00 0.00 84 1023.3
20260831145054 81 0 0.0 0.0 0.00 0.00 0.00 86 1023.4
20260831144608 80 0 0.0 0.0 0.00 0.00 0.00 85 1023.4
20260831144053 80 0 0.0 0.0 0.00 0.00 0.00 85 1023.5
20260831143553 79 0 0.0 0.0 0.00 0.00 0.00 87 1023.4
20260831143109 79 0 0.0 0.0 0.00 0.00 0.00 87 1023.4
20260831142556 78 0 0.0 0.0 0.00 0.00 0.00 88 1023.2
20260831142054 78 0 0.0 0.0 0.00 0.00 0.00 87 1023.2
20260831141606 78 0 0.0 0.0 0.00 0.00 0.00 88 1023.2
20260831141053 77 0 0.0 0.0 0.00 0.00 0.00 89 1023.2
20260831140554 77 0 0.0 0.0 0.00 0.00 0.00 92 1023.2
20260831140104 76 0 0.0 0.0 0.00 0.00 0.00 93 1023.2
20260831135555 76 0 0.0 0.0 0.00 0.00 0.00 94 1023.2
20260831135054 75 0 0.0 0.0 0.00 0.00 0.00 95 1023.2
20260831134607 74 0 0.0 0.0 0.00 0.00 0.00 98 1023.2
20260831134053 73 0 0.0 0.0 0.00 0.00 0.00 98 1023.2
20260831133557 73 0 0.0 0.0 0.00 0.00 0.00 98 1023.4
20260831133106 71 0 0.0 0.0 0.00 0.00 0.00 98 1023.2
20260831132554 71 0 0.0 0.0 0.00 0.00 0.00 98 1022.9
20260831132053 70 0 0.0 0.0 0.00 0.00 0.00 98 1023.1
20260831131603 70 0 0.0 0.0 0.00 0.00 0.00 98 1022.9
20260831131053 70 0 0.0 0.0 0.00 0.00 0.00 98 1022.8
20260831130553 70 0 0.0 0.0 0.00 0.00 0.00 98 1022.8
20260831130126 69 0 0.0 0.0 0.00 0.00 0.00 98 1022.8
20260831125554 69 0 0.0 0.0 0.00 0.00 0.00 98 1022.7
20260831125056 68 0 0.0 0.0 0.00 0.00 0.00 98 1022.6
20260831124602 67 0 0.0 0.0 0.00 0.00 0.00 98 1022.7
20260831124055 67 0 0.0 0.0 0.00 0.00 0.00 98 1022.6
20260831123554 67 0 0.0 0.0 0.00 0.00 0.00 98 1022.7
20260831123100 67 0 0.0 0.0 0.00 0.00 0.00 98 1022.6
20260831122554 66 0 0.0 0.0 0.00 0.00 0.00 98 1022.6
20260831122054 66 0 0.0 0.0 0.00 0.00 0.00 98 1022.5
20260831121609 66 0 0.0 0.0 0.00 0.00 0.00 97 1022.5
20260831121053 66 0 0.0 0.0 0.00 0.00 0.00 97 1022.6
20260831120552 66 0 0.0 0.0 0.00 0.00 0.00 97 1022.5
20260831120145 66 0 0.0 0.0 0.00 0.00 0.00 97 1022.5
20260831115549 66 0 0.0 0.0 0.00 0.00 0.00 97 1022.4
20260831115054 66 0 0.0 0.0 0.00 0.00 0.00 97 1022.5
20260831114600 66 0 0.0 0.0 0.00 0.00 0.00 97 1022.4
20260831114053 66 0 0.0 0.0 0.00 0.00 0.00 97 1022.5
20260831113554 65 0 0.0 0.0 0.00 0.00 0.00 97 1022.2
20260831113100 65 0 0.0 0.0 0.00 0.00 0.00 97 1022.2
20260831112554 65 0 0.0 0.0 0.00 0.00 0.00 97 1022.2
20260831112054 65 0 0.0 0.0 0.00 0.00 0.00 97 1022.1
20260831111602 65 0 0.0 0.0 0.00 0.00 0.00 97 1022.2
20260831111053 65 0 0.0 0.0 0.00 0.00 0.00 97 1022.2
20260831110553 65 0 0.0 0.0 0.00 0.00 0.00 97 1022.1
20260831105554 66 0 0.0 0.0 0.00 0.00 0.00 97 1021.8
20260831105055 66 0 0.0 0.0 0.00 0.00 0.00 97 1021.8
20260831104601 66 0 0.0 0.0 0.00 0.00 0.00 97 1021.8
20260831104054 66 0 0.0 0.0 0.00 0.00 0.00 97 1021.7
20260831103554 66 0 0.0 0.0 0.00 0.00 0.00 97 1021.9
20260831103104 66 0 0.0 0.0 0.00 0.00 0.00 97 1021.8
20260831102553 66 0 0.0 0.0 0.00 0.00 0.00 97 1021.7
20260831102053 66 0 0.0 0.0 0.00 0.00 0.00 96 1021.6
20260831101623 66 0 0.0 0.0 0.00 0.00 0.00 96 1021.7
20260831101053 66 0 0.0 0.0 0.00 0.00 0.00 96 1021.7
20260831100556 66 0 0.0 0.0 0.00 0.00 0.00 96 1021.9
20260831100059 66 0 0.0 0.0 0.00 0.00 0.00 96 1021.7
20260831095552 66 0 0.0 0.0 0.00 0.00 0.00 96 1021.6
20260831095054 66 0 0.0 0.0 0.00 0.00 0.00 96 1021.6
20260831094607 66 0 0.0 0.0 0.00 0.00 0.00 96 1021.6
20260831094058 66 0 0.0 0.0 0.00 0.00 0.00 96 1021.6
20260831093554 67 0 0.0 0.0 0.00 0.00 0.00 96 1021.6
20260831093113 67 0 0.0 0.0 0.00 0.00 0.00 97 1021.6
20260831092553 67 0 0.0 0.0 0.00 0.00 0.00 97 1021.7
20260831092054 67 0 0.0 0.0 0.00 0.00 0.00 97 1021.5
20260831091606 67 0 0.0 0.0 0.00 0.00 0.00 97 1021.6
20260831091055 67 0 0.0 0.0 0.00 0.00 0.00 97 1021.5
20260831090555 67 0 0.0 0.0 0.00 0.00 0.00 97 1021.7
20260831090124 67 0 0.0 0.0 0.00 0.00 0.00 97 1021.6
20260831085554 67 0 0.0 0.0 0.00 0.00 0.00 96 1021.6
20260831085055 67 0 0.0 0.0 0.00 0.00 0.00 96 1021.6
20260831084602 67 0 0.0 0.0 0.00 0.00 0.00 96 1021.6
20260831084053 67 0 0.0 0.0 0.00 0.00 0.00 96 1021.4
20260831083553 67 0 0.0 0.0 0.00 0.00 0.00 96 1021.4
20260831083108 67 0 0.0 0.0 0.00 0.00 0.00 96 1021.4
20260831082556 67 0 0.0 0.0 0.00 0.00 0.00 96 1021.3
20260831082053 67 0 0.0 0.0 0.00 0.00 0.00 96 1021.3
20260831081602 67 0 0.0 0.0 0.00 0.00 0.00 96 1021.3
20260831081053 67 0 0.0 0.0 0.00 0.00 0.00 96 1021.4
20260831080557 68 0 0.0 0.0 0.00 0.00 0.00 96 1021.3
20260831080101 68 0 0.0 0.0 0.00 0.00 0.00 96 1021.4
20260831075553 68 0 0.0 0.0 0.00 0.00 0.00 96 1021.3
20260831075056 68 0 0.0 0.0 0.00 0.00 0.00 96 1021.3
20260831074613 68 0 0.0 0.0 0.00 0.00 0.00 96 1021.2
20260831074056 68 0 0.0 0.0 0.00 0.00 0.00 96 1021.1
20260831073556 68 0 0.0 0.0 0.00 0.00 0.00 96 1021.1
20260831073125 68 0 0.0 0.0 0.00 0.00 0.00 96 1021.3
20260831072556 68 0 0.0 0.0 0.00 0.00 0.00 96 1021.3
20260831072055 68 0 0.0 0.0 0.00 0.00 0.00 96 1021.4
20260831071615 68 0 0.0 0.0 0.00 0.00 0.00 96 1021.4
20260831071052 68 0 0.0 0.0 0.00 0.00 0.00 96 1021.4
20260831070553 68 0 0.0 0.0 0.00 0.00 0.00 96 1021.4
20260831070136 68 0 0.0 0.0 0.00 0.00 0.00 96 1021.4
20260831065553 68 0 0.0 0.0 0.00 0.00 0.00 96 1021.4
20260831065053 68 0 0.0 0.0 0.00 0.00 0.00 96 1021.4
20260831064604 68 0 0.0 0.0 0.00 0.00 0.00 96 1021.5
20260831064052 68 0 0.0 0.0 0.00 0.00 0.00 96 1021.4
20260831063552 68 0 0.0 0.0 0.00 0.00 0.00 96 1021.4
20260831063102 68 0 0.0 0.0 0.00 0.00 0.00 95 1021.4
20260831062553 68 0 0.0 0.0 0.00 0.00 0.00 95 1021.5
20260831062050 68 0 0.0 0.0 0.00 0.00 0.00 95 1021.5
20260831061606 68 0 0.0 0.0 0.00 0.00 0.00 95 1021.6
20260831061055 68 0 0.0 0.0 0.00 0.00 0.00 95 1021.6
20260831060553 69 0 0.0 0.0 0.00 0.00 0.00 95 1021.6
20260831060109 69 0 0.0 0.0 0.00 0.00 0.00 95 1021.7
20260831055553 69 0 0.0 1.0 0.00 0.00 0.00 95 1021.8
20260831055053 69 0 0.0 1.0 0.00 0.00 0.00 95 1021.8
20260831054606 69 0 0.0 0.0 0.00 0.00 0.00 94 1021.7
20260831054053 69 0 0.0 0.0 0.00 0.00 0.00 94 1021.7
20260831053553 69 0 0.0 0.0 0.00 0.00 0.00 94 1021.6
20260831053106 69 0 0.0 0.0 0.00 0.00 0.00 94 1021.8
20260831052550 69 0 0.0 0.0 0.00 0.00 0.00 94 1021.7
20260831052053 69 0 0.0 0.0 0.00 0.00 0.00 94 1021.7
20260831051619 69 0 0.0 0.0 0.00 0.00 0.00 94 1021.7
20260831051053 69 0 0.0 0.0 0.00 0.00 0.00 94 1021.8
20260831050553 70 0 0.0 0.0 0.00 0.00 0.00 94 1021.6
20260831050100 70 0 0.0 0.0 0.00 0.00 0.00 94 1021.7
20260831045553 70 0 0.0 0.0 0.00 0.00 0.00 94 1021.8
20260831045053 70 0 0.0 0.0 0.00 0.00 0.00 94 1021.7
20260831044604 70 0 0.0 0.0 0.00 0.00 0.00 94 1021.6
20260831044052 70 0 0.0 0.0 0.00 0.00 0.00 94 1021.6
20260831043552 70 0 0.0 0.0 0.00 0.00 0.00 94 1021.6
20260831043101 70 0 0.0 0.0 0.00 0.00 0.00 93 1021.6
20260831042553 70 0 0.0 0.0 0.00 0.00 0.00 93 1021.7
20260831042049 70 0 0.0 0.0 0.00 0.00 0.00 93 1021.7
20260831041557 70 0 0.0 0.0 0.00 0.00 0.00 93 1021.7
20260831041053 70 0 0.0 0.0 0.00 0.00 0.00 93 1021.8
20260831040553 70 0 0.0 0.0 0.00 0.00 0.00 93 1021.7
20260831040058 71 0 0.0 0.0 0.00 0.00 0.00 93 1021.6
20260831035552 71 0 0.0 0.0 0.00 0.00 0.00 92 1021.6
20260831035052 71 0 0.0 0.0 0.00 0.00 0.00 92 1021.7
20260831034606 71 0 0.0 0.0 0.00 0.00 0.00 92 1021.6